Location: 3 Angels Observatory
(30.5437°N, 88.5068°W)
Time: 17:39:19
(UTC-05:00)

Oscar 19 - Visible Passes

Search period start: 30 July 2016 00:00
Search period end: 09 August 2016 00:00
Orbit: 773 x 791 km, 98.5° (Epoch: 29 July)

Date Brightness Start Highest point End Pass type
(mag) Time Alt. Az. Time Alt. Az. Time Alt. Az.
30 Jul 12.3 02:36:24 10° N 02:38:53 29° N 02:38:53 29° N visible
31 Jul 12.7 02:04:40 10° NNE 02:06:38 23° NNE 02:06:38 23° NNE visible
31 Jul 12.9 03:46:13 10° NW 03:47:11 12° NW 03:47:11 12° NW visible
01 Aug 13.3 01:33:33 10° NE 01:34:23 14° NE 01:34:23 14° NE visible
01 Aug 12.5 03:12:45 10° NNW 03:14:56 21° NNW 03:14:56 21° NNW visible
02 Aug 12.4 02:40:24 10° N 02:42:42 26° N 02:42:42 26° N visible
03 Aug 12.8 02:08:35 10° NNE 02:10:27 22° NNE 02:10:27 22° NNE visible
03 Aug 13.0 03:50:37 10° NW 03:51:00 11° NW 03:51:00 11° NW visible
04 Aug 13.3 01:37:23 10° NE 01:38:12 14° NE 01:38:12 14° NE visible
04 Aug 12.6 03:16:51 10° NNW 03:18:45 19° NNW 03:18:45 19° NNW visible
05 Aug 12.5 02:44:23 10° N 02:46:30 24° N 02:46:30 24° N visible
06 Aug 12.9 02:12:32 10° NNE 02:14:15 21° NNE 02:14:15 21° NNE visible
07 Aug 13.3 01:41:14 10° NE 01:42:00 14° NE 01:42:00 14° NE visible
07 Aug 12.8 03:20:57 10° NNW 03:22:34 17° NNW 03:22:34 17° NNW visible
08 Aug 12.7 02:48:24 10° N 02:50:18 22° N 02:50:18 22° N visible
